Regional Weather Roundup
Issued by NWS Grand Forks, ND

Home | Current Version | Previous Version | Graphics & Text | Print | Product List | Glossary On
Versions: 1 2 3 4 5 6 7 8 9 10 11 12 13 14 15 16 17 18 19 20 21 22 23 24 25 26 27 28 29 30 31 32 33 34 35 36 37 38 39 40 41 42 43 44 45 46 47 48 49 50
000
ASUS43 KFGF 281510
RWRFGF
PRAIRIE TO PINES  WEATHER ROUNDUP
NATIONAL WEATHER SERVICE EASTERN NORTH DAKOTA/GRAND FORKS ND
1000 AM CDT SAT MAR 28 2015

 **SATELLITE DATA USED TO AUGMENT SKY COVER AT AUTOMATED STATIONS**
 *****  WEATHER ACROSS EASTERN NORTH DAKOTA  *****

CITY           SKY/WX    TMP DP  RH WIND       PRES   REMARKS
GRAND FORKS    PTSUNNY   33  24  69 S18G25    30.05F WCI  22
GRAND FRKS AFB NOT AVBL
GRAND FRKS NWS   N/A     32 N/A N/A S14         N/A  WCI  22
DEVILS LAKE    CLOUDY    32  28  86 S15       29.93F WCI  22
FARGO          SUNNY     35  24  64 S20       30.10F WCI  24
WAHPETON ARPT  SUNNY     34  25  69 S17       30.12F WCI  23
$$

 ***** WEATHER ACROSS CENTRAL AND WESTERN NORTH DAKOTA  *****

CITY           SKY/WX    TMP DP  RH WIND       PRES   REMARKS
BISMARCK       CLOUDY    30  30 100 SE12      29.92F FOG     WCI  20
MINOT          MOSUNNY   34  32  92 SE10      29.81F
JAMESTOWN      CLOUDY    32  28  85 S15       29.98F WCI  22
MINOT AFB      CLOUDY    31  31 100 SE10      29.80F FOG     WCI  22
GARRISON         N/A     32  31  96 S12       29.83F WCI  23
WILLISTON      SUNNY     46  36  68 S8        29.72F
DICKINSON      SUNNY     49  36  61 S20G25    29.78F
HETTINGER      SUNNY     47  35  63 S14G20    29.85F
$$

 *****  OTHER AIRPORT OBSERVATIONS IN OUR AREA  *****

CITY           SKY/WX    TMP DP  RH WIND       PRES   REMARKS
WALHALLA         N/A     30  30 100 S15       29.96F WCI  19
GRAFTON AIRPOR NOT AVBL
VALLEY CITY AR CLOUDY    30  30 100 S12       30.02F WCI  21
CANDO          NOT AVBL
CAVALIER APRT    N/A     28  25  86 S16       29.99F WCI  17
GWINNER        CLOUDY    32  32 100 SE10        N/A  WCI  24
SHEYENNE NWR     N/A     32  26  78 S14       29.95S WCI  22
ROLLA          FOG       28  28 100 MISG      29.87F VSB<1/4
 ***** THE ABOVE OBSERVATIONS ARE NON NWS ARE NOT QUALITY
       CONTROLLED AND MAY MIS-REPORT RAIN FOR SNOW...
$$

  *****  WEATHER ACROSS NORTHERN MINNESOTA  *****

CITY           SKY/WX    TMP DP  RH WIND       PRES   REMARKS
FLAG ISLAND    MOSUNNY   18  10  73 SE10      30.06F WCI   6
WARROAD        MOSUNNY   32  19  59 S10       30.08F WCI  24
ROSEAU         MOSUNNY   34  21  60 S13       30.06F WCI  25
HALLOCK        PTSUNNY   30  25  80 S20       30.03F WCI  18
THF RVR FALLS  SUNNY     30  23  74 S14       30.08F WCI  20
BAUDETTE       MOSUNNY   31  16  54 S10       30.09F WCI  22
WASKISH        SUNNY     34  14  44 SE9       30.12F
CROOKSTON      MOSUNNY   34  23  64 S17       30.09F WCI  23
STEPHEN NDAWN    N/A     32  25  74 S20         N/A  WCI  20
GREENBUSH NDAW   N/A     30  23  74 S16         N/A  WCI  19
$$
  *****  WEATHER ACROSS CENTRAL AND WEST MINNESOTA  *****

CITY           SKY/WX    TMP DP  RH WIND       PRES   REMARKS
FOSSTON        SUNNY     32  19  59 S16       30.10F WCI  21
BEMIDJI        SUNNY     30  17  57 S7        30.12F WCI  23
PARK RAPIDS    SUNNY     31  16  54 S10       30.13F WCI  22
ELBOW LAKE     FAIR      33  25  74 S15       30.13F WCI  22
WADENA         SUNNY     30  19  64 S14       30.13F WCI  20
DETROIT LAKES  SUNNY     32  23  69 S14       30.11F WCI  22
MOORHEAD       SUNNY     36  27  69 S16G23    30.11F
FERGUS FALLS   CLOUDY    32  21  64 S15       30.15F WCI  22
MORRIS MN      CLOUDY    32  27  80 S15       30.14S WCI  22
STAPLES        SUNNY     30  16  55 SE10      30.16F WCI  21
$$
  *****  WEATHER ELSEWHERE ACROSS MINNESOTA  *****

CITY           SKY/WX    TMP DP  RH WIND       PRES   REMARKS
DULUTH         SUNNY     31  10  41 S10       30.19S WCI  22
INTRNTL FALLS  SUNNY     30  13  49 SW8       30.13F WCI  22
ELY            SUNNY     28  10  47 S8        30.17F WCI  20
CLOQUET        SUNNY     30  10  43 S5        30.20S
WHEATON        PTSUNNY   30  27  86 SE14      30.15F WCI  20
BRAINERD       SUNNY     32  12  43 S10       30.18F WCI  24
HIBBING        SUNNY     26  13  57 VRB3      30.18S
ALEXANDRIA     SUNNY     32  22  66 S13       30.15F WCI  22
SAINT CLOUD    SUNNY     30  16  56 SE9       30.21S WCI  22
MINNEAPOLIS    SUNNY     30  12  47 SE7       30.25F WCI  23
$$

  *****  WEATHER ACROSS SOUTH DAKOTA  *****

CITY           SKY/WX    TMP DP  RH WIND       PRES   REMARKS
SIOUX FALLS    MOSUNNY   35  26  69 S13       30.12F
BROOKINGS      NOT AVBL
WATERTOWN      CLOUDY    30  25  81 S16       30.08F WCI  19
HURON          SUNNY     34  26  72 S16       30.07F WCI  24
SISSETON         N/A     29  26  89 S15       30.11F WCI  18
ABERDEEN       PTSUNNY   35  27  72 S15       30.05F
MITCHELL       SUNNY     35  27  72 S20       30.09F WCI  24
PIERRE         MOSUNNY   32  29  88 SE14      29.98S WCI  22
MOBRIDGE       SUNNY     34  29  82 SE15      29.93F WCI  24
RAPID CITY     SUNNY     49  35  58 SE6       29.88F
$$

  *****  SOME WEATHER IN NEARBY STATES *****

CITY           SKY/WX    TMP DP  RH WIND       PRES   REMARKS
GLASGOW MT     SUNNY     45  35  68 SE14      29.63F
GREAT FALLS MT MOSUNNY   60  34  37 SW18      29.65R
CHEYENNE WY    SUNNY     55  28  35 SW8       30.08F
SCOTTSBLUFF NE SUNNY     49  33  54 NW6       30.00S
OMAHA NE       MOSUNNY   40  26  57 SE16      30.17R
DES MOINES IA  MOSUNNY   39  14  36 S14       30.25R
DAVENPORT IA   SUNNY     30  15  53 S8        30.33R WCI  22
CHICAGO IL     MOSUNNY   29  10  45 NE7       30.33R WCI  22
EAU CLAIRE WI  SUNNY     31  11  43 S5        30.28R
LA CROSSE WI   SUNNY     30  19  63 SE6       30.31R WCI  24
$$

  *****  SOME NATIONAL WEATHER *****

CITY           SKY/WX    TMP DP  RH WIND       PRES   REMARKS
LA GUARDIA NY  FLURRIES  34  21  59 N12       29.83R
RALEIGH NC     MOSUNNY   39  17  41 W13G20    30.05R
ATLANTA GA     MOSUNNY   40  19  43 NW10      30.15R
NEW ORLEANS LA MOSUNNY   57  33  40 SE8       30.25S
OKLAHOMA CITY  MOSUNNY   56  40  55 SW6       30.05R
ALBUQUERQUE NM SUNNY     53  21  28 W6        30.26R
SALT LAKE CITY MOSUNNY   57  31  37 SE14      30.09S
LOS ANGELES CA PTSUNNY   60  59  96 E5        30.07S FOG
BOISE ID       CLOUDY    49  39  68 NW16G24   30.20R
SEATTLE WA     MOCLDY    49  44  83 SW15G25   30.24R
$$

*** WEATHER ACROSS MANITOBA...SASKATCHEWAN AND ONTARIO ***
                ***ONTARIO***

CITY           SKY/WX    TMP DP  RH WIND       PRES   REMARKS
GERALDTON      MOSUNNY   23   1  39 SW8       30.13F WCI  14
THUNDER BAY    SUNNY     23   9  54 W5        30.23F WCI  17
SIOUX LOOKOUT  MOSUNNY   21   3  45 SW7       30.08F WCI  13
TORONTO        SUNNY     21  -2  35 N16G24    30.20R WCI   7
BIG TROUT LK   SUNNY     21  14  73 SW8       29.89F WCI  12
PICKLE LAKE    MOSUNNY   27   3  36 SW9       30.02F WCI  17
DRYDEN         SUNNY     25   5  42 SW12      30.08F WCI  14
KENORA         PTSUNNY   27   9  46 S12       30.05F WCI  16
$$
                *** MANITOBA***

CITY           SKY/WX    TMP DP  RH WIND       PRES   REMARKS
BRANDON        CLOUDY    32  30  93 S12       29.84F WCI  23
DAUPHIN        CLOUDY    34  30  86 SW12G17   29.78F
ISLAND LAKE    CLOUDY    28  23  80 SW14G20   29.82F WCI  17
PILOT MOUND    NOT AVBL
THE PAS        FRZ DRZL  30  28  93 S14       29.61F WCI  20
THOMPSON       CLOUDY    27  23  86 SW12      29.61F WCI  16
WINNIPEG       PTSUNNY   30  23  74 S18G26    29.98F WCI  18
LYNN LAKE      LGT SNOW  30  30 100 SW7       29.50F WCI  23
CHURCHILL      MOSUNNY   30  21  69 SW18      29.46F WCI  18
GILLAM         CLOUDY    23  21  93 SW14G23   29.64F WCI  11
$$
                ***SASKATCHEWAN***

CITY           SKY/WX    TMP DP  RH WIND       PRES   REMARKS
ESTEVAN        MOSUNNY   41  36  81 SE12      29.69F
KINDERSLEY     CLOUDY    45  39  81 SW7       29.50S
LLOYDMINSTER   CLOUDY    36  34  93 NW14G21   29.48S
PRINCE ALBERT  CLOUDY    36  34  93 SE6       29.46F
REGINA         PTSUNNY   36  34  93 SE16G24   29.59F
YORKTON        CLOUDY    34  32  93 SE17      29.64F FOG     WCI  23
N. BATTLEFORD  SUNNY     41  36  81 SW5       29.47S
LA RONGE       CLOUDY    34  32  93 NE8       29.51F
SASKATOON      PTSUNNY   43  37  81 S13       29.47F
SWIFT CURRENT  SUNNY     52  37  58 SW14G20   29.53F
$$
NOTE: THESE ARE AUTOMATED STATIONS WITH LIMITED QUALITY CONTROL
      "FAIR" INDICATES FEW OR NO CLOUDS BELOW 12,000 FEET WITH NO
      SIGNIFICANT WEATHER AND/OR OBSTRUCTIONS TO VISIBILITY.
      SKY/WX - SKY CONDITION AND SIGNIFICANT WEATHER.
      TMP - AIR TEMPERATURE.    DP   - DEWPOINT TEMPERATURE.
      RH  - RELATIVE HUMIDITY.  PRES - PRESSURE.
      HX  - HEAT INDEX.         WCI  - WIND CHILL INDEX.
$


USA.gov is the U.S. government's official web portal to all federal, state and local government web resources and services.